Regional Weather Roundup
Issued by NWS

Home | Current Version | Previous Version | Text Only | Print | Product List | Glossary Off
Versions: 1 2 3 4 5 6 7 8 9 10 11 12 13 14 15 16 17 18 19 20 21 22 23 24 25 26 27 28 29 30 31 32 33 34 35 36 37 38 39 40 41 42 43 44 45 46 47 48 49 50

000
ASUS43 KOAX 171610
RWRNE

WEATHER ROUNDUP FOR NEBRASKA
NATIONAL WEATHER SERVICE OMAHA NE
1000 AM CST WED DEC 17 2014

NOTES: SATELLITE DATA IS BEING USED TO AUGMENT CLOUD COVER ABOVE
       12000 FEET.
       "FAIR" INDICATES FEW OR NO CLOUDS BELOW 12,000 FEET WITH NO
       SIGNIFICANT WEATHER AND/OR OBSTRUCTIONS TO VISIBILITY.

  * THESE STATIONS DO NOT REPORT WEATHER SUCH AS RAIN...SNOW OR FOG.

NEZ001>004-019>022-054>056-171700-
NEBRASKA PANHANDLE

CITY           SKY/WX    TMP DP  RH WIND       PRES   REMARKS
SCOTTSBLUFF    CLOUDY    17  16  95 SE3       30.02S
ALLIANCE       CLOUDY    21  18  88 S16       30.02R WCI   7
CHADRON        PTSUNNY    9   8  96 CALM      30.04S FOG
KIMBALL        CLOUDY    17  16  95 S6        29.98R WCI   8
SIDNEY         FOG       19  17  92 S12       30.04R VSB 1/4 WCI   7
$$

NEZ057>060-069>072-079>082-171700-
SOUTHWEST NEBRASKA

CITY           SKY/WX    TMP DP  RH WIND       PRES   REMARKS
NORTH PLATTE   CLOUDY    20  18  92 SE7       30.17S WCI  11
IMPERIAL       CLOUDY    22  18  85 S12       30.12S WCI  10
LEXINGTON      CLOUDY    22  21  95 SE8       30.22R FOG     WCI  13
MCCOOK         CLOUDY    21  20  96 SE9       30.19R FOG     WCI  11
OGALLALA       CLOUDY    23  22  97 S7        30.12S FOG     WCI  14
$$

NEZ005>010-023>029-035>040-094-171700-
NORTH CENTRAL NEBRASKA

CITY           SKY/WX    TMP DP  RH WIND       PRES   REMARKS
VALENTINE      CLOUDY    19  17  92 SE14      30.17F FOG     WCI   6
AINSWORTH      FOG       18  16  93 S6        30.20R VSB 1   WCI   9
BROKEN BOW     CLOUDY    20  18  92 SE8       30.21R FOG     WCI  10
O`NEILL        CLOUDY    18  17  96 CALM      30.26S
ORD            CLOUDY    18  16  92 SE7       30.25S WCI   9
$$

NEZ041-046>049-061>064-073>077-083>087-171700-
SOUTH CENTRAL NEBRASKA

CITY           SKY/WX    TMP DP  RH WIND       PRES   REMARKS
GRAND ISLAND   CLOUDY    20  17  88 E7        30.29S WCI  11
AURORA         CLOUDY    23  20  89 SE7       30.28F WCI  14
HASTINGS       CLOUDY    21  18  88 E7        30.26S WCI  12
HEBRON         CLOUDY    23  18  82 E6        30.30F WCI  16
HOLDREGE       CLOUDY    20  19  94 E5        30.23S FOG     WCI  14
KEARNEY *      CLOUDY    21  18  86 E6        30.25S WCI  14
YORK           CLOUDY    23  19  86 E7        30.30S WCI  15
$$

NEZ011>018-030>034-042>045-171700-
NORTHEAST NEBRASKA

CITY           SKY/WX    TMP DP  RH WIND       PRES   REMARKS
NORFOLK        MOSUNNY   21  15  78 CALM      30.30S
ALBION         CLOUDY    20  16  83 S6        30.30R WCI  13
BLAIR          CLOUDY    20  14  80 E6        30.33S WCI  12
COLUMBUS *     CLOUDY    21  10  63 CALM      30.33S
FREMONT        CLOUDY    20  14  77 CALM      30.35R
TEKAMAH        PTSUNNY   19  12  74 N5        30.37S WCI  12
WAYNE          PTSUNNY   17  11  78 CALM      30.34S
$$

NEZ050>053-065>068-078-088>093-171700-
SOUTHEAST NEBRASKA

CITY           SKY/WX    TMP DP  RH WIND       PRES   REMARKS
LINCOLN        PTSUNNY   23  15  71 NE5       30.35S WCI  17
OMAHA EPPLEY   PTSUNNY   20  13  74 N6        30.37S WCI  12
BEATRICE       PTSUNNY   23  16  75 E6        30.33R WCI  15
FALLS CITY     CLOUDY    21  15  78 NE6       30.35F WCI  13
NEBRASKA CITY  CLOUDY    21  13  71 E3        30.34S
PLATTSMOUTH    CLOUDY    20  13  73 NE3       30.34R
$$

NEZ044-045-051>053-067-171700-
OMAHA AREA

CITY           SKY/WX    TMP DP  RH WIND       PRES   REMARKS
OMAHA EPPLEY   PTSUNNY   20  13  74 N6        30.37S WCI  12
BLAIR          CLOUDY    20  14  80 E6        30.33S WCI  12
FREMONT        CLOUDY    20  14  77 CALM      30.35R
MILLARD        CLOUDY    21  13  71 CALM      30.35S
OFFUTT AFB     PTSUNNY   20  13  73 N6        30.35S WCI  12
PLATTSMOUTH    CLOUDY    20  13  73 NE3       30.34R
WAHOO          CLOUDY    21  15  76 NE6       30.34S WCI  14
$$



USA.gov is the U.S. government's official web portal to all federal, state and local government web resources and services.